Weather History for KLAX - November, 2012

Change the Weather History Date:

Saturday, November 3, 2012

  Actual Average Record
Temperature  
Mean Temperature 63 °F 64 °F  
Max Temperature 69 °F 71 °F 98 °F (2010)
Min Temperature 56 °F 56 °F 42 °F (1946)
Degree Days  
Heating Degree Days 2 3  
Month to date heating degree days 7 8  
Since 1 July heating degree days 24 52  
Cooling Degree Days 0 1  
Month to date cooling degree days 0 3  
Year to date cooling degree days 711 534  
Growing Degree Days 12 (Base 50)    
Moisture  
Dew Point 57 °F    
Average Humidity 81    
Maximum Humidity 93    
Minimum Humidity 68    
Precipitation  
Precipitation 0.00 in 0.03 in 0.23 in (1960)
Month to date precipitation 0.00 0.09  
Year to date precipitation 4.76 9.75  
Since 1 July precipitation 0.15 0.94  
Sea Level Pressure  
Sea Level Pressure 30.01 in    
Wind  
Wind Speed 5 mph (West)    
Max Wind Speed 14 mph    
Max Gust Speed 17 mph    
Visibility 7 miles    
Events Fog    
T = Trace of Precipitation, MM = Missing Value Source: NWS Daily Summary

Daily Weather History Graph

Daily Weather History Graph

Search for Another Location

Airport or City:

Trip Planner

Search our weather history database for the weather conditions in past years. The results will help you decide how hot, cold, wet, or windy it might be!

Date:

Astronomy

Nov. 03, 2012 Rise Set
Actual Time 7:15 AM PDT 5:58 PM PDT
Civil Twilight 6:49 AM PDT 6:24 PM PDT
Nautical Twilight 6:19 AM PDT 6:54 PM PDT
Astronomical Twilight 5:50 AM PDT 7:23 PM PDT
Moon 9:48 PM PDT (11/3) 11:18 AM PDT (11/3)
Length of Visible Light 11h 35m
Length of Day
10h 43m
Waning Gibbous, 79% of the Moon is Illuminated
Nov 3
Waning Gibbous
Nov 6
Last Quarter
Nov 13
New
Nov 20
First Quarter
Nov 28
Full

Hourly Weather History & Observations

Time (PDT) Temp. Dew Point Humidity Pressure Visibility Wind Dir Wind Speed Gust Speed Precip Events Conditions
12:53 AM 61.0 °F 57.0 °F 87% 29.98 in 10.0 mi Calm Calm - N/A   Mostly Cloudy
1:53 AM 60.1 °F 57.0 °F 90% 29.99 in 10.0 mi Calm Calm - N/A   Scattered Clouds
2:53 AM 57.2 °F 55.4 °F 94% 29.99 in 6.0 mi Calm Calm - N/A Fog Patches of Fog
3:53 AM 57.2 °F 55.4 °F 94% 29.99 in 5.0 mi Calm Calm - N/A Fog Patches of Fog
4:53 AM 57.2 °F 53.6 °F 88% 29.99 in 4.0 mi Calm Calm - N/A Fog Patches of Fog
5:53 AM 57.2 °F 53.6 °F 88% 30.00 in 4.0 mi Calm Calm - N/A Fog Patches of Fog
6:53 AM 57.0 °F 54.0 °F 89% 30.01 in 4.0 mi Calm Calm - N/A Fog Patches of Fog
7:53 AM 55.9 °F 53.1 °F 90% 30.03 in 4.0 mi East 3.5 mph - N/A   Scattered Clouds
8:53 AM 60.1 °F 55.0 °F 83% 30.05 in 4.0 mi SSE 3.5 mph - N/A   Haze
9:53 AM 63.0 °F 55.9 °F 78% 30.05 in 5.0 mi Calm Calm - N/A   Haze
10:53 AM 66.9 °F 55.9 °F 68% 30.05 in 6.0 mi Calm Calm - N/A   Haze
11:53 AM 66.9 °F 57.0 °F 70% 30.05 in 6.0 mi West 8.1 mph - N/A   Haze
12:53 PM 68.0 °F 57.0 °F 68% 30.03 in 8.0 mi West 10.4 mph - N/A   Clear
1:53 PM 68.0 °F 57.0 °F 68% 30.01 in 10.0 mi West 8.1 mph - N/A   Partly Cloudy
2:53 PM 68.0 °F 57.0 °F 68% 30.00 in 10.0 mi West 10.4 mph - N/A   Scattered Clouds
3:53 PM 66.9 °F 57.9 °F 73% 29.99 in 10.0 mi West 12.7 mph - N/A   Partly Cloudy
4:53 PM 66.0 °F 59.0 °F 78% 29.99 in 10.0 mi West 12.7 mph - N/A   Partly Cloudy
5:53 PM 64.9 °F 60.1 °F 84% 30.00 in 9.0 mi West 10.4 mph - N/A   Partly Cloudy
6:53 PM 64.0 °F 60.1 °F 87% 30.00 in 10.0 mi West 10.4 mph - N/A   Partly Cloudy
7:53 PM 64.0 °F 60.1 °F 87% 30.01 in 9.0 mi West 8.1 mph - N/A   Clear
8:53 PM 64.0 °F 60.1 °F 87% 30.01 in 9.0 mi SSW 3.5 mph - N/A   Clear
9:53 PM 63.0 °F 60.1 °F 90% 30.02 in 8.0 mi Calm Calm - N/A   Clear
10:53 PM 63.0 °F 59.0 °F 87% 30.04 in 8.0 mi ESE 5.8 mph - N/A   Clear
11:53 PM 62.1 °F 59.0 °F 90% 30.04 in 9.0 mi NE 4.6 mph - N/A   Partly Cloudy